Location: Heidgraben
(53.7081°N, 9.6576°E)
Time: 20:34:52
(UTC+00:00)

Cosmos 2360 Rocket - Pass Details

Date: 05 July 2020
Orbit: 832 x 846 km, 71.0° (Epoch: 14 August)

Event Time Altitude Azimuth Distance (km) Brightness Sun altitude
Rises 20:33:45 0° 206° (SSW) 3,379 5.1 -5.1°
Reaches altitude 10° 20:36:10 10° 205° (SSW) 2,451 4.4 -5.3°
Maximum altitude 20:41:48 80° 120° (ESE) 860 2.2 -5.8°
Drops below altitude 10° 20:47:29 10° 34° (NNE) 2,476 4.9 -6.3°
Sets 20:49:57 0° 33° (NNE) 3,416 5.7 -6.5°
